STARLINK-1741, 46567

Orbit data source: Space-Track

STARLINK-1741, 46567 is a payload satellite owned by SpaceX/Seattle (US) in LEO that was launched on Tue, 06 Oct 2020 UTC via an FALCON 9 launch vehicle from the Air Force Eastern Test Range (AFETR). Payload-class satellites include a variety of spacecraft equipped with specific instruments for various scientific and technological missions. These include communications satellites like Starlink; space stations such as the ISS; scientific satellites like the Hubble; Earth observation satellites from companies like Planet Labs, Umbra, and HawkEye 360; GPS; miniature CubeSats for education and research; and military/defense satellites.

Loading next visibility...
Identifier
46567, 2020-070AM
Orbit
LEO
Country
Flag of USUS
Related business
Manufacturer
SpaceX/Seattle
Mission
Operational Commercial Communications
Bus & Motor
STARLINK, Unknown motor
Mass
260 kg wet, ~248 kg dry
Launch date (UTC)
2020-10-06 (5 years ago)
Launch vehicle
FALCON 9
Launch site
Air Force Eastern Test Range (AFETR)
Object type
Payload
Rocket body
Debris
Shape & HBR
Box + 1 Pan, 10.1 m
Radar Cross Section
13.562 m², Large (>1 m²)

Expand to show TLE details & history
Last TLE update: 11 hours ago

TLE from 11 hours ago
0 STARLINK-1741
1 46567U 20070AM  25295.50002315  .02069579  00000-0  10513+0 0  9993
2 46567  53.0554  56.8656 0000811  95.0919 223.4236 15.13149737  5728
Epoch: 2025-10-22T12:00Z
TLE epoch observation values (Epoch: 2025-10-22T12:00:02.000Z)
Latitude
-32.17659°
Longitude
177.6139°
Altitude
536.991 km
Speed
7.594 km/s
True Right ascension
01h 55m 10s
True Declination
-32° 01' 01"
Sunlit
Object was in full shadow at epoch
Visualization orbit readout
Latitude
Unknown
Longitude
Unknown
Altitude
Unknown
Speed
Unknown
Apparent Right ascension
Unknown
Apparent Declination
Unknown
Sunlit
N/A
Visualization observer readout
Local Sidereal Time
18:27:18
Azimuth
Unknown
Elevation
Unknown
Doppler factor
Unknown
Orbital elements
Apogee altitude
527.433 km
Perigee altitude
526.313 km
Semi-major axis
6,905.01 km
Eccentricity
0.00008
Inclination
53.0554°
RAAN
56.8656°
Arg. of periapsis
95.0919°
True anomaly
223.41721°
Mean anomaly
223.4236°
Eccentric anomaly
223.42041°
Mean motion
3.78265 °/min
Orbital period
95.17 mins
BSTAR
0.10513
Loading maneuver chart data...
Computing Atmospheric mass density...

Documentation

Showing up to 5 results
|